www.pogodaiklimat.ru

Погода и климат >> Архив погоды >> Индия >> Гуджарат >> Раджкот


ПОГОДА в Раджкоте

  • Прогноз погоды в Раджкоте
  • Монитор погоды в Раджкоте

АРХИВ ПОГОДЫ в Раджкоте

Время (UTC), дата Ветер
(напр.,м/с)
 
Видим.   Явления Облачность Т
(С)
Тd
(С)
f
(%)
Тe
(С)
Тes
(С)
Комфортность P
(гПа)
Po
(гПа)
Тmin
(С)
Tmax
(С)
R
(мм)
R24
(мм)
S
(см)
00 14.06 Ю 4 4000 м 8/5 360 м
[St Ac trans]
+26.4 +24.4 89 +37 +37 очень
душно
997.4 981.8 1
03 14.06 ЮВ 5 4000 м слаб. морось {дождь} 9/5 300 м
[Frnb Ac As]
+26.2 +25.1 94 +38 +39 очень
душно
997.7 982.1 +24.5 5
06 14.06 В 8 4000 м {дождь, морось} 8/4 450 м
[Frnb Ac trans]
+28.4 +24.1 78 +40 +41 очень
душно
999.7 984.2 0.9
09 14.06 ЮВ 6 4000 м 8/3 600 м
[Sc Ac trans]
+31.4 +23.6 63 +42 +45 опасность
перегрева
998.5 983.2 0.9
12 14.06 Ю 6 4000 м слаб. морось 9/5 450 м
[Cu Sc Ac trans]
+27.4 +25.1 87 +39 +40 очень
душно
998.1 982.6 +32.5 1
15 14.06 В 6 4000 м 6/3 600 м
[Sc Ac trans]
+28.4 +25.0 82 +41 +41 опасность
перегрева
999.1 983.6 1
18 14.06 ЮВ 4 4000 м 6/3 600 м
[Sc Ac trans]
+28.2 +24.5 80 +40 +40 очень
душно
1000.4 984.9 1
21 14.06 ЮВ 5 4000 м 6/3 600 м
[Sc Ac trans]
+28.0 +25.2 85 +41 +41 опасность
перегрева
999.4 983.9 1
00 15.06 ЮВ 6 4000 м 8/3 360 м
[St Ac trans]
+27.6 +24.7 84 +39 +39 очень
душно
999.5 983.9 1
03 15.06 ЮВ 5 4000 м 8/3 360 м
[Sc Ac trans]
+28.8 +24.2 76 +40 +41 очень
душно
1000.9 985.4 +26.0 1
06 15.06 Ю 7 4000 м 8/4 360 м
[Sc Ac trans]
+32.2 +25.5 68 +47 +49 опасность
перегрева
1001.7 986.3
09 15.06 ЮЗ 6 4000 м 8/4 600 м
[Sc diur, vesp Ac trans]
+32.0 +24.9 66 +45 +48 опасность
перегрева
1000.8 985.5
12 15.06 Ю 5 4000 м 8/4 600 м
[Sc diur, vesp Ac trans]
+33.8 +24.8 59 +47 +48 опасность
перегрева
999.7 984.5 +35.2
15 15.06 Ю 6 4000 м 4/4 600 м
[Cu Sc Ac trans]
+31.2 +24.0 66 +43 +43 опасность
перегрева
1001.5 986.1
18 15.06 Ю 5 4000 м 4/4 600 м
[Cu Sc]
+29.4 +24.5 75 +42 +42 опасность
перегрева
1003.3 987.8
21 15.06 Ю 4 4000 м 4/4 600 м
[Sc]
+28.4 +24.7 80 +40 +40 очень
душно
1002.2 986.6
00 16.06 Ю 4 4000 м ясно +28.0 +25.2 85 +41 +41 опасность
перегрева
1001.8 986.2
03 16.06 Ю 5 4000 м 4/4 360 м
[St]
+29.6 +25.4 78 +43 +45 опасность
перегрева
1003.4 987.9 +26.9
06 16.06 Ю 6 4000 м 6/6 600 м
[Sc diur, vesp]
+35.0 +23.2 51 +46 +49 опасность
перегрева
1003.5 988.3
09 16.06 Ю 7 4000 м {дождь} 5/5 600 м
[Sc diur, vesp]
+35.6 +22.3 46 +44 +47 опасность
перегрева
1002.3 987.1 2
12 16.06 ЮЗ 6 4000 м 4/4 600 м
[Sc]
+35.2 +22.5 48 +44 +45 опасность
перегрева
1001.1 985.9 +36.5 2
15 16.06 ЮЗ 6 4000 м 3/3 600 м
[]
+31.2 +24.3 67 +43 +43 опасность
перегрева
973.0 958.0 2
18 16.06 Ю 5 4000 м 1/1 600 м
[Sc]
+29.6 +25.4 78 +43 +43 опасность
перегрева
1004.4 988.9 2
21 16.06 Ю 4 4000 м 1/1 600 м
[Sc]
+29.0 +25.3 80 +42 +42 опасность
перегрева
1003.2 987.7 2
00 17.06 Ю 5 4000 м слаб. морось 4/4 450 м
[Cu Sc]
+28.0 +25.7 87 +41 +41 опасность
перегрева
1003.1 987.5 3
03 17.06 Ю 4 4000 м 4/4 360 м
[St]
+30.0 +24.9 74 +43 +45 опасность
перегрева
1004.0 988.5 +27.0 3
06 17.06 ЮЗ 6 4000 м {морось} 4/4 600 м
[Sc]
+33.0 +22.9 55 +43 +47 опасность
перегрева
1003.6 988.3 0.2
09 17.06 Ю 8 4000 м 5/5 600 м
[Cu Sc]
+35.2 +22.1 47 +44 +46 опасность
перегрева
1002.0 986.8 0.2
12 17.06 Ю 8 4000 м 5/5 600 м
[Cu Sc]
+34.0 +21.7 49 +42 +43 опасность
перегрева
1000.4 985.2 +36.0 0.2
15 17.06 Ю 5 4000 м 4/4 600 м
[Sc Ac trans]
+31.0 +24.7 69 +44 +44 опасность
перегрева
1001.6 986.2 0.2
18 17.06 Ю 7 4000 м 5/3 450 м
[St Ac trans]
+29.6 +24.5 74 +42 +42 опасность
перегрева
1001.9 986.4 0.2
21 17.06 Ю 5 4000 м слаб. морось 4/4 360 м
[St]
+28.0 +25.4 86 +41 +41 опасность
перегрева
1000.2 984.7 0.3
00 18.06 Ю 4 4000 м в посл. час дождь {морось} 4/4 450 м
[St Ac trans]
+26.8 +26.0 95 +40 +40 очень
душно
999.5 983.9 8
03 18.06 Ю 4 2000 м слаб. морось 9/6 450 м
[Frnb Ac trans]
+28.2 +26.8 92 +44 +45 опасность
перегрева
1000.0 984.5 +25.3 9
06 18.06 ЮЗ 5 4000 м {морось} 8/5 450 м
[Frnb Ac trans]
+28.6 +25.2 82 +42 +45 опасность
перегрева
1000.1 984.6 2
09 18.06 Ю 5 4000 м 9/6 450 м
[Sc Ac trans]
+27.0 +26.4 97 +41 +43 опасность
перегрева
999.6 984.0 9
12 18.06 ЮЗ 6 4000 м {гроза, дождь} 6/3 450 м
[Sc Ac trans]
+29.0 +26.8 88 +45 +46 опасность
перегрева
998.5 983.0 +30.5 12
15 18.06 штиль 0 4000 м {гроза, дождь} 5/4 360 м
[St Ac trans]
+35.0 +13.8 28 +36 +36 очень
жарко
1000.5 983.4 12
18 18.06 ЮЗ 4 4000 м 6/4 360 м
[St Ac trans]
+27.6 +25.6 89 +41 +41 опасность
перегрева
1001.5 985.9 12
21 18.06 ЮЗ 3 4000 м 6/4 360 м
[Sc Ac trans]
+27.2 +25.8 92 +40 +40 очень
душно
1000.6 985.0 12
00 19.06 ЮЗ 3 4000 м 6/4 360 м
[Sc Ac trans]
+26.8 +25.7 94 +40 +40 очень
душно
1000.7 985.1 12
03 19.06 З 7 4000 м 4/4 360 м
[St]
+27.8 +25.2 86 +40 +42 очень
душно
1002.3 986.7 +25.8 12
06 19.06 ЮЗ 5 4000 м 5/5 360 м
[St]
+31.4 +23.3 62 +42 +48 опасность
перегрева
1002.2 986.8
09 19.06 ЮЗ 3 4000 м 4/4 600 м
[Sc]
+35.0 +22.6 49 +45 +54 опасность
перегрева
1000.5 985.3
12 19.06 Ю 5 4000 м 4/4 540 м
[Sc]
+34.6 +23.1 51 +45 +46 опасность
перегрева
999.6 984.4 +35.7
15 19.06 ЮЗ 5 4000 м ясно +30.4 +23.1 65 +41 +41 опасность
перегрева
1001.5 986.1
18 19.06 ЮЗ 5 4000 м 4/4 600 м
[Sc]
+28.4 +25.3 83 +41 +41 опасность
перегрева
1003.5 987.9
21 19.06 Ю 5 4000 м 4/4 600 м
[Sc]
+27.8 +25.2 86 +40 +40 очень
душно
1002.4 986.8
00 20.06 ЮЗ 3 4000 м 3/3 600 м
[Sc]
+27.2 +25.2 89 +39 +39 очень
душно
1002.7 987.1
03 20.06 З 5 4000 м 5/5 360 м
[St]
+28.4 +25.0 82 +41 +42 опасность
перегрева
1004.5 988.9 +26.0
06 20.06 З 3 4000 м 5/5 600 м
[Sc]
+33.2 +22.4 53 +42 +51 опасность
перегрева
1004.4 989.1
09 20.06 З 4 4000 м 5/4 600 м
[Sc diur, vesp]
+36.0 +21.3 43 +44 +50 опасность
перегрева
1002.6 987.4
12 20.06 З 5 4000 м 4/4 600 м
[Sc]
+36.0 +21.3 43 +44 +45 опасность
перегрева
999.7 984.6 +37.7
15 20.06 ЮЗ 5 4000 м 5/5 600 м
[Sc Ac trans]
+32.0 +22.4 57 +41 +41 опасность
перегрева
1001.9 986.5
18 20.06 ЮЗ 5 4000 м 3/3 600 м
[Sc]
+29.0 +24.4 76 +41 +41 опасность
перегрева
1004.4 988.8

 

Местоположение метеостанции Раджкот (Гуджарат, Индия): широта 22.30 долгота 70.78 высота над уровнем моря 138 м.

В архиве по умолчанию представлена погода в Раджкоте за последнюю неделю. Архивные данные за месяц целиком и за предыдущие месяцы, начиная с января 2011 года, Вы можете получить, выбрав интересующий диапазон дат из раскрывающегося списка и нажав кнопку "Ввод!".


*Определитесь, кто Вы:
робот инопланетянин человек

Внимание! Время в таблицах - всемирное. Для получения местного времени необходимо прибавить поправку, которая равна 5.5 ч.

Смотрите также архив погоды в соседних городах и на ближайших метеорологических станциях:

Погода в Амрели (Гуджарат, Индия) (90 км)
Погода в Нью-Кандле (Гуджарат, Индия) (97 км)
Погода в Сурендранагаре (Гуджарат, Индия) (97 км)
Погода в Кандле (Гуджарат, Индия) (114 км)
Погода в Порбандаре (Гуджарат, Индия) (135 км)
Погода в Бхудже (Гуджарат, Индия) (155 км)
Погода в Бхавнагаре (Гуджарат, Индия) (159 км)
Погода в Веравале (Гуджарат, Индия) (161 км)
Погода в Мандви (Гуджарат, Индия) (166 км)
Погода в Махьюве (Гуджарат, Индия) (171 км)

Пояснения к столбцам:

Ветер - указаны скорость ветра в м/с - средняя за 10 мин, порывы в срок и между сроками (в фигурных скобках) и направление, откуда дует ветер: С - северный, СВ - северо-восточный, В - восточный, ЮВ - юго-восточный, Ю - южный, ЮЗ - юго-западный, З - западный, СЗ - северо-западный.
Видимость - горизонтальная дальность видимости в метрах или километрах. При видимости от 1 до 10 км при отсутствии осадков обычно наблюдается дымка, при ухудшении видимости до 1 км и менее - туман. В сухую погоду видимость может ухудшаться дымом, пылью или мглою.
Явления - указаны атмосферные явления, наблюдавшиеся в срок или в последний час перед сроком; фигурными скобками обозначены явления, наблюдавшиеся между сроками (за 1-3 часа до срока); квадратными скобками обозначены град или гололедные отложения с указанием их диаметра в мм.
Облачность - указаны через наклонную черту общая и нижняя облачность в баллах и высота нижней границы облаков в метрах; квадратными скобками обозначены формы облаков: Ci - перистые, Cs - перисто-слоистые, Cc - перисто-кучевые, Ac - высококучевые, As - высокослоистые, Sc - слоисто-кучевые, Ns - слоисто-дождевые, Cu - кучевые, Cb - кучево-дождевые. Подробнее классификацию облаков см. в Атласе облаков (PDF).
T - Температура воздуха - температура, измеренная на высоте 2 м над землей.
Td - Температура точки росы - температура, при понижении до которой содержащийся в воздухе водяной пар достигнет насыщения.
f - Относительная влажность воздуха - влажноcть воздуха, измеренная на высоте 2 м над землей.
Te - Эффективная температура - температура, которую ощущает одетый по сезону человек в тени. Характеристика душности погоды. При расчете учитывается влияние влажности воздуха и скорости ветра на теплоощущения человека.
Tes - Эффективная температура на солнце - температура, которую ощущает человек, с поправкой на солнечный нагрев. Характеристика знойности погоды. Зависит от высоты солнца над горизонтом, облачности и скорости ветра. Ночью, в пасмурную погоду, а также при ветре 12 м/с и более поправка равна нулю.
P - Атмосферное давление - приведенное к уровню моря атмосферное давление.
Po - Атмосферное давление - измеренное на уровне метеостанции атмосферное давление.
Tmin - Минимальная температура - минимум температуры воздуха на высоте 2 м над землей.
Tmax - Максимальная температура - максимум температуры воздуха на высоте 2 м над землей.
R - Количество осадков - Количество выпавших осадков за период времени, мм. При наведении курсора мыши на число - период времени, за который выпало указанное количество осадков.
R24 - Количество осадков - Количество выпавших осадков за 24 часа, мм.
S - Снежный покров - Высота снежного покрова, см. При наведении курсора мыши на число - состояние снежного покрова и степень покрытия местности в баллах.